[[{"header":{"parameterUnit":"m.s-1","parameterCategory":1,"la1":30.2991,"la2":30.254,"lo1":-89.0895,"lo2":-89.0444,"dy":0.0017,"dx":0.0017,"nx":28,"ny":28,"refTime":"2026-02-11T09:00:00:Z","depth":0,"parameterNumber":2,"parameterNumberName":"U-component_of_WINDS"},"data":[0,0,0,0,0,0,0,0,0,0,0,0,0,0,0,0,0,0,0,0,0,0,0,0,0,0,0,0,0,0,0,0,0,0,0,0,0,0,0,0,0,0,0,0,0,0,0,0,0,0,0,0,0,0,0,0,0,0,1.0112,1.0113,0,1.0206,1.0207,1.0208,1.0233,1.0232,1.0231,1.0231,1.0328,1.0331,1.0334,0,0,0,0,0,0,0,0,0,0,0,0,0,0.9955,0.9958,1.0112,1.0113,1.0114,1.0205,1.0207,1.0208,1.0233,1.0232,1.0231,1.0231,1.0327,1.033,1.0334,0,0,0,0,0,0,0,0,0,0,0,0,0,1.0033,0.9959,1.0112,1.0137,1.0141,1.0205,1.0207,1.0208,1.0233,1.0232,1.0231,1.023,1.0325,1.033,1.0334,1.038,0,0,1.0349,1.0351,0,0,0,0,0,0,0,0,1.0029,1.0039,1.0132,1.0136,1.014,1.0206,1.0187,1.0266,1.0233,1.0198,1.0231,1.023,1.0288,1.0296,1.0315,1.0385,1.0389,1.0349,1.0352,1.0354,1.0355,0,0,0,0,0,0,0,1.0023,1.0035,1.0149,1.0134,1.0138,1.0145,1.0155,1.0202,1.0247,1.0201,1.0203,1.0214,1.029,1.0311,1.0318,1.039,1.0349,1.0353,1.0356,1.0358,1.0502,1.0503,0,0,0,0,0,0,1.0013,1.003,1.0146,1.0152,1.0081,1.0148,1.016,1.0186,1.0246,1.0254,1.0214,1.0214,1.0303,1.0312,1.0321,1.0379,1.0354,1.0358,1.0361,1.0501,1.0502,1.0503,0,0,0,0,0,0,1.001,1.0023,1.0142,1.0092,1.0107,1.0152,1.0181,1.0188,1.0209,1.0256,1.0264,1.0227,1.0303,1.0315,1.0365,1.0382,1.036,1.0364,1.05,1.0501,1.0503,1.0494,0,0,0,0,0,0,1.0005,1.0022,1.004,1.0092,1.011,1.0184,1.0182,1.0191,1.0217,1.0218,1.0271,1.0278,1.0303,1.0358,1.037,1.0388,1.0368,1.0498,1.05,1.0502,1.0493,1.0495,1.0497,0,0,0,0,0,1.0,1.0033,1.004,1.0054,1.0133,1.0185,1.0196,1.0223,1.0218,1.0236,1.0267,1.0277,1.0378,1.0363,1.0376,1.0397,1.0497,1.05,1.0502,1.0492,1.0494,1.0497,0,0,0,0,0,0,0.9982,1.0041,1.0049,1.0101,1.0138,1.0189,1.0213,1.0225,1.0264,1.0264,1.0296,1.0308,1.0356,1.0382,1.0363,1.0444,1.0438,1.0443,1.0426,1.0429,1.043,1.0423,1.0372,0,0,0,0,0,0.9984,1.0022,1.0071,1.0112,1.013,1.0168,1.0192,1.021,1.025,1.0266,1.03,1.0338,1.0379,1.0405,1.0445,1.0496,1.0508,1.0517,1.0519,1.052,1.0524,1.0554,1.0558,1.0511,1.0511,1.0511,0,0,0.9989,1.0026,1.0047,1.0109,1.014,1.0179,1.0181,1.0222,1.0251,1.0272,1.0322,1.0348,1.0394,1.0445,1.0469,1.0467,1.054,1.0523,1.0524,1.0527,1.0556,1.0561,1.0565,1.0513,1.0512,1.0512,0,0,1.0017,1.0049,1.0086,1.0117,1.0164,1.0189,1.0198,1.0248,1.0267,1.0317,1.0334,1.0369,1.0438,1.047,1.0495,1.0535,1.0546,1.0548,1.0558,1.0586,1.0589,1.0593,1.0608,1.0612,1.0551,1.0551,1.0551,0,1.0017,1.0076,1.0104,1.0144,1.0171,1.0192,1.023,1.0259,1.0316,1.0335,1.0332,1.0419,1.0451,1.051,1.052,1.054,1.0551,1.0542,1.0587,1.059,1.0594,1.0608,1.0614,1.0551,1.0551,1.0551,1.0551,0,1.0074,1.0114,1.0139,1.0194,1.0224,1.0262,1.0297,1.0324,1.0339,1.0364,1.0416,1.0455,1.0503,1.0518,1.0534,1.058,1.0577,1.058,1.0575,1.0598,1.0612,1.0618,1.0551,1.0551,1.0551,1.0551,0,0,1.0094,1.0164,1.0172,1.0198,1.0251,1.0283,1.0323,1.037,1.0392,1.0431,1.0466,1.0524,1.0527,1.0555,1.0575,1.0599,1.0629,1.0599,1.0601,1.0604,1.0682,1.068,1.0685,1.0637,1.0638,1.0639,1.0678,0,1.0129,1.0201,1.0228,1.0287,1.0325,1.0345,1.038,1.0417,1.0442,1.0477,1.0505,1.0546,1.0547,1.0564,1.059,1.062,1.0645,1.0618,1.0669,1.0671,1.0657,1.0693,1.069,1.0726,1.0684,1.0685,1.0686,0,1.0179,1.0219,1.0281,1.033,1.0347,1.0378,1.0424,1.0458,1.05,1.0516,1.0548,1.0565,1.0608,1.06,1.066,1.0641,1.0663,1.0681,1.0684,1.0689,1.0679,1.07,1.0738,1.0743,1.0695,1.0694,1.0693,0,1.0187,1.0256,1.0303,1.0324,1.0382,1.0403,1.0428,1.047,1.0496,1.0536,1.0554,1.0598,1.0622,1.0656,1.0686,1.0677,1.0743,1.0737,1.0758,1.0757,1.0771,1.0769,1.0813,1.0785,1.0785,1.0785,1.0785,0,1.0224,1.0261,1.0307,1.0336,1.0379,1.041,1.0451,1.0478,1.0514,1.0549,1.0569,1.0601,1.0638,1.0674,1.0697,1.0743,1.0754,1.0769,1.0775,1.0767,1.0765,1.0782,1.0781,1.0786,1.0786,1.0786,1.0786,0,1.024,1.0272,1.0324,1.0375,1.0389,1.0418,1.0462,1.0491,1.0517,1.056,1.0572,1.0613,1.0657,1.0689,1.0747,1.0762,1.0811,1.0817,1.0797,1.08,1.0819,1.0816,1.0875,1.0884,1.085,1.085,1.0851,0,1.0261,1.029,1.0344,1.0369,1.0394,1.0433,1.046,1.0492,1.052,1.057,1.0593,1.0638,1.0676,1.0746,1.0781,1.0825,1.0832,1.0849,1.0839,1.083,1.0832,1.083,1.0833,1.0851,1.0851,1.0851,1.0851,0,1.0295,1.0309,1.0348,1.0392,1.0425,1.0461,1.0498,1.0517,1.0555,1.0585,1.0631,1.066,1.0718,1.0764,1.0811,1.0837,1.0851,1.0854,1.0861,1.0854,1.0841,1.0848,1.0801,1.0853,1.0853,1.0853,1.0852,1.0852,1.0314,1.0341,1.0384,1.0426,1.0457,1.0491,1.0521,1.0551,1.0589,1.0639,1.0655,1.0702,1.0744,1.0809,1.0836,1.0873,1.0873,1.0883,1.0885,1.0887,1.0887,1.0835,1.0882,1.0882,1.0882,1.0882,1.0882,0,1.0349,1.0377,1.0416,1.0467,1.05,1.051,1.0552,1.0579,1.062,1.0658,1.0695,1.0747,1.0791,1.083,1.0875,1.0898,1.0905,1.0909,1.0907,1.0913,1.0885,1.0874,1.0902,1.0902,1.0902,1.0902,1.0902,1.0902,1.0371,1.0417,1.0437,1.05,1.0528,1.0574,1.0597,1.0629,1.0659,1.0716,1.0753,1.0778,1.0816,1.0864,1.0905,1.0915,1.0931,1.0933,1.0945,1.0917,1.0915,1.0913,1.0903,1.0936,1.0936,1.097,1.097,1.097]},{"header":{"parameterUnit":"m.s-1","parameterCategory":1,"la1":30.2991,"la2":30.254,"lo1":-89.0895,"lo2":-89.0444,"dy":0.0017,"dx":0.0017,"nx":28,"ny":28,"refTime":"2026-02-11T09:00:00:Z","depth":0,"parameterNumber":3,"parameterNumberName":"V-component_of_WINDS"},"data":[0,0,0,0,0,0,0,0,0,0,0,0,0,0,0,0,0,0,0,0,0,0,0,0,0,0,0,0,0,0,0,0,0,0,0,0,0,0,0,0,0,0,0,0,0,0,0,0,0,0,0,0,0,0,0,0,0,0,0.7886,0.7887,0,0.7929,0.793,0.793,0.7938,0.7938,0.7937,0.7937,0.7983,0.7984,0.7986,0,0,0,0,0,0,0,0,0,0,0,0,0,0.7811,0.7813,0.7886,0.7887,0.7887,0.7929,0.793,0.7931,0.7938,0.7938,0.7937,0.7937,0.7982,0.7984,0.7986,0,0,0,0,0,0,0,0,0,0,0,0,0,0.7848,0.7813,0.7886,0.7896,0.7897,0.7929,0.793,0.7931,0.7938,0.7938,0.7937,0.7937,0.7982,0.7984,0.7986,0.8012,0,0,0.7993,0.7994,0,0,0,0,0,0,0,0,0.7846,0.7851,0.7894,0.7896,0.7897,0.7928,0.792,0.7958,0.7938,0.7923,0.7937,0.7936,0.7965,0.7969,0.7978,0.8014,0.8016,0.7994,0.7995,0.7996,0.7997,0,0,0,0,0,0,0,0.7843,0.7849,0.7903,0.7895,0.7897,0.7899,0.7903,0.7927,0.7947,0.7924,0.7925,0.793,0.7966,0.7976,0.7979,0.8016,0.7994,0.7996,0.7997,0.7998,0.8075,0.8076,0,0,0,0,0,0,0.7839,0.7847,0.7902,0.7905,0.787,0.7901,0.7906,0.7918,0.7946,0.795,0.793,0.793,0.7972,0.7976,0.7981,0.8013,0.7996,0.7998,0.8,0.8074,0.8075,0.8076,0,0,0,0,0,0,0.7837,0.7844,0.79,0.7876,0.7883,0.7902,0.7917,0.792,0.793,0.7951,0.7954,0.7937,0.7972,0.7978,0.8004,0.8014,0.7999,0.8001,0.8074,0.8075,0.8075,0.8076,0,0,0,0,0,0,0.7835,0.7843,0.7853,0.7876,0.7885,0.7922,0.7917,0.7921,0.7934,0.7934,0.7958,0.7962,0.7972,0.8,0.8006,0.8017,0.8003,0.8073,0.8074,0.8075,0.8075,0.8077,0.8079,0,0,0,0,0,0.7832,0.7852,0.7853,0.786,0.7897,0.7923,0.7928,0.7939,0.7934,0.7944,0.7958,0.7961,0.8012,0.8003,0.801,0.8022,0.8072,0.8074,0.8075,0.8075,0.8077,0.8079,0,0,0,0,0,0,0.783,0.7855,0.7857,0.7885,0.7901,0.7924,0.7937,0.7941,0.796,0.7959,0.7972,0.7978,0.8003,0.8015,0.8004,0.8047,0.8042,0.8045,0.8039,0.8041,0.8043,0.804,0.8005,0,0,0,0,0,0.7833,0.7851,0.7872,0.7894,0.7903,0.7918,0.793,0.7937,0.7955,0.7963,0.7978,0.7996,0.8016,0.8029,0.8049,0.8077,0.8082,0.8088,0.809,0.8091,0.8094,0.8109,0.8112,0.8081,0.8081,0.808,0,0,0.7839,0.7854,0.7865,0.7894,0.7908,0.7927,0.7924,0.7945,0.796,0.7966,0.7992,0.8003,0.8024,0.8051,0.8064,0.8062,0.8103,0.8093,0.8093,0.8096,0.8111,0.8114,0.8117,0.8082,0.8081,0.8081,0,0,0.7859,0.7873,0.7893,0.7906,0.7927,0.7937,0.7942,0.7964,0.7972,0.7998,0.8003,0.802,0.8054,0.8069,0.8081,0.8106,0.811,0.8112,0.8121,0.8136,0.8138,0.8141,0.815,0.8153,0.8114,0.8114,0.8114,0,0.7864,0.7893,0.7903,0.7923,0.7936,0.7941,0.7962,0.7974,0.8001,0.801,0.8006,0.8049,0.8064,0.8094,0.81,0.8109,0.8116,0.811,0.8137,0.814,0.8142,0.8151,0.8155,0.8114,0.8114,0.8114,0.8114,0,0.7898,0.7918,0.7932,0.7956,0.797,0.799,0.8004,0.8016,0.8021,0.8032,0.8058,0.8075,0.8099,0.8106,0.8112,0.8137,0.8135,0.8134,0.8129,0.8145,0.8154,0.8157,0.8115,0.8115,0.8115,0.8115,0,0,0.7921,0.7949,0.7954,0.7965,0.7988,0.8004,0.8024,0.8046,0.8057,0.8074,0.8092,0.812,0.8119,0.8133,0.814,0.8153,0.8172,0.815,0.8151,0.8154,0.8202,0.8203,0.8207,0.8174,0.8174,0.8175,0.82,0,0.7945,0.7981,0.799,0.8021,0.8039,0.8044,0.8061,0.8077,0.8087,0.8105,0.8116,0.8136,0.8133,0.8141,0.8154,0.8167,0.8182,0.8165,0.8191,0.8192,0.8187,0.8212,0.8214,0.8237,0.8204,0.8205,0.8205,0,0.7978,0.7996,0.8028,0.8048,0.8056,0.8072,0.8092,0.8109,0.8127,0.8133,0.8147,0.8153,0.8174,0.8167,0.8197,0.8185,0.8196,0.8204,0.8205,0.8209,0.82,0.8217,0.8245,0.8249,0.821,0.821,0.821,0,0.7992,0.8024,0.8047,0.8057,0.808,0.8091,0.8101,0.8118,0.8131,0.8149,0.8157,0.8177,0.8189,0.8204,0.8215,0.8209,0.8244,0.8238,0.8251,0.8251,0.826,0.8259,0.829,0.8265,0.8265,0.8265,0.8264,0,0.8019,0.8039,0.8054,0.8069,0.8091,0.8101,0.8123,0.8133,0.8148,0.8165,0.817,0.8186,0.8199,0.8216,0.8225,0.8249,0.8254,0.826,0.8262,0.826,0.8259,0.8269,0.8268,0.8266,0.8265,0.8265,0.8265,0,0.8039,0.805,0.8076,0.8095,0.8101,0.8117,0.8133,0.8148,0.8157,0.8179,0.8184,0.8199,0.822,0.8232,0.8258,0.8264,0.8291,0.8292,0.8285,0.8286,0.8299,0.8298,0.8338,0.8344,0.8313,0.8314,0.8314,0,0.8057,0.8072,0.8092,0.8104,0.8114,0.8132,0.8145,0.8154,0.8167,0.8188,0.82,0.8221,0.8239,0.8272,0.8285,0.8306,0.8308,0.832,0.8311,0.8308,0.8309,0.8309,0.831,0.8322,0.8323,0.8323,0.8323,0,0.8086,0.809,0.8108,0.8127,0.8141,0.8157,0.8172,0.8181,0.8193,0.8208,0.8229,0.8242,0.8268,0.8289,0.831,0.8321,0.8325,0.8325,0.833,0.8329,0.8324,0.8328,0.829,0.8325,0.8325,0.8325,0.8325,0.8324,0.8106,0.812,0.8136,0.8156,0.8168,0.8182,0.8196,0.8207,0.8224,0.8246,0.8251,0.8273,0.829,0.8318,0.833,0.8348,0.8345,0.8352,0.8353,0.8355,0.8356,0.832,0.8351,0.8351,0.8351,0.8351,0.8351,0,0.8137,0.8147,0.8165,0.8186,0.8201,0.82,0.8217,0.823,0.825,0.8265,0.8281,0.8305,0.8325,0.834,0.836,0.8372,0.8374,0.8377,0.8377,0.8379,0.8356,0.8351,0.8375,0.8375,0.8375,0.8375,0.8375,0.8375,0.8155,0.8178,0.8184,0.8213,0.8224,0.8245,0.8255,0.8268,0.828,0.8306,0.8323,0.8331,0.8346,0.8368,0.8386,0.839,0.8398,0.8401,0.8405,0.8384,0.8381,0.8379,0.8374,0.8402,0.8402,0.8427,0.8427,0.8427]}]]